• In Österreich
  • Länderverzeichnis
  • Für 7 Tage
  • Wassertemperatur
  • Satellitenkarten
  • Wetterkarte
  • News
  • Widgets
  • user-avatar
    Anmelden

    Stündliche Wetter Szronka

    Heute, 20 September, Donnerstag

    Zeit Temperatur Niederschläge Wind Luftdruck Luftfeuchtigkeit
    00:00 +20°C° 0 mm 1 m/S 751 mmHg 72%
    01:00 +20°C° 0 mm 1 m/S 751 mmHg 72%
    02:00 +20°C° 0 mm 1 m/S 751 mmHg 72%
    03:00 +19°C° 0 mm 1 m/S 751 mmHg 72%
    04:00 +18°C° 0 mm 2 m/S 751 mmHg 72%
    05:00 +19°C° 0 mm 2 m/S 751 mmHg 71%
    06:00 +19°C° 0 mm 2 m/S 751 mmHg 71%
    07:00 +20°C° 0 mm 2 m/S 751 mmHg 70%
    08:00 +22°C° 0 mm 3 m/S 751 mmHg 65%
    09:00 +25°C° 0 mm 3 m/S 751 mmHg 59%
    10:00 +27°C° 0 mm 3 m/S 751 mmHg 53%
    11:00 +28°C° 0 mm 3 m/S 751 mmHg 50%
    12:00 +29°C° 0 mm 4 m/S 751 mmHg 47%
    13:00 +29°C° 0 mm 4 m/S 751 mmHg 44%
    14:00 +29°C° 0 mm 3 m/S 751 mmHg 46%
    15:00 +29°C° 0 mm 3 m/S 750 mmHg 47%
    16:00 +29°C° 0 mm 2 m/S 750 mmHg 49%
    17:00 +27°C° 0 mm 2 m/S 750 mmHg 54%
    18:00 +25°C° 0 mm 2 m/S 750 mmHg 58%
    19:00 +23°C° 0 mm 2 m/S 750 mmHg 63%
    20:00 +23°C° 0 mm 2 m/S 750 mmHg 64%
    21:00 +21°C° 0 mm 2 m/S 750 mmHg 66%
    22:00 +21°C° 0 mm 2 m/S 750 mmHg 68%
    23:00 +20°C° 0 mm 2 m/S 750 mmHg 69%

    Morgen, 21 September, Freitag

    Zeit Temperatur Niederschläge Wind Luftdruck Luftfeuchtigkeit
    00:00 +20°C° 0 mm 2 m/S 750 mmHg 70%
    01:00 +20°C° 0 mm 3 m/S 750 mmHg 71%
    02:00 +19°C° 0 mm 3 m/S 749 mmHg 71%
    03:00 +19°C° 0 mm 3 m/S 749 mmHg 72%
    04:00 +18°C° 0 mm 3 m/S 749 mmHg 72%
    05:00 +19°C° 0 mm 3 m/S 749 mmHg 69%
    06:00 +19°C° 0 mm 4 m/S 749 mmHg 66%
    07:00 +19°C° 0 mm 4 m/S 749 mmHg 63%
    08:00 +21°C° 0 mm 5 m/S 748 mmHg 57%
    09:00 +23°C° 0 mm 5 m/S 748 mmHg 51%
    10:00 +26°C° 0 mm 6 m/S 748 mmHg 46%
    11:00 +27°C° 0 mm 6 m/S 747 mmHg 43%
    12:00 +27°C° 0 mm 7 m/S 746 mmHg 41%
    13:00 +28°C° 0 mm 7 m/S 746 mmHg 39%
    14:00 +28°C° 0 mm 7 m/S 745 mmHg 40%
    15:00 +27°C° 0 mm 6 m/S 744 mmHg 42%
    16:00 +27°C° 0 mm 6 m/S 744 mmHg 43%
    17:00 +26°C° 0 mm 6 m/S 743 mmHg 46%
    18:00 +24°C° 0 mm 6 m/S 743 mmHg 48%
    19:00 +23°C° 0 mm 6 m/S 743 mmHg 51%
    20:00 +21°C° 0.1 mm 7 m/S 743 mmHg 55%
    21:00 +20°C° 0.1 mm 7 m/S 744 mmHg 60%
    22:00 +18°C° 0.1 mm 8 m/S 745 mmHg 64%
    23:00 +16°C° 0.3 mm 7 m/S 745 mmHg 67%

    übermorgen, 22 September, Samstag

    Zeit Temperatur Niederschläge Wind Luftdruck Luftfeuchtigkeit
    00:00 +14°C° 0.3 mm 6 m/S 746 mmHg 70%
    01:00 +13°C° 0.3 mm 4 m/S 747 mmHg 74%
    02:00 +13°C° 0 mm 4 m/S 747 mmHg 74%
    03:00 +12°C° 0 mm 4 m/S 747 mmHg 74%
    04:00 +12°C° 0 mm 4 m/S 748 mmHg 75%
    05:00 +12°C° 0 mm 4 m/S 748 mmHg 71%
    06:00 +12°C° 0 mm 5 m/S 748 mmHg 68%
    07:00 +13°C° 0 mm 5 m/S 749 mmHg 65%
    08:00 +14°C° 0 mm 6 m/S 749 mmHg 59%
    09:00 +15°C° 0 mm 7 m/S 749 mmHg 53%
    10:00 +15°C° 0 mm 7 m/S 749 mmHg 48%
    11:00 +16°C° 0 mm 7 m/S 749 mmHg 46%
    12:00 +16°C° 0 mm 7 m/S 749 mmHg 45%
    13:00 +17°C° 0 mm 7 m/S 749 mmHg 43%
    14:00 +17°C° 0.1 mm 6 m/S 749 mmHg 45%
    15:00 +16°C° 0.1 mm 6 m/S 748 mmHg 46%
    16:00 +16°C° 0.1 mm 5 m/S 748 mmHg 48%
    17:00 +15°C° 0.1 mm 5 m/S 748 mmHg 51%
    18:00 +14°C° 0.1 mm 4 m/S 748 mmHg 55%
    19:00 +13°C° 0.1 mm 4 m/S 748 mmHg 58%
    20:00 +12°C° 0 mm 4 m/S 749 mmHg 60%
    21:00 +12°C° 0 mm 4 m/S 749 mmHg 62%
    22:00 +11°C° 0 mm 4 m/S 749 mmHg 64%
    23:00 +11°C° 0 mm 4 m/S 749 mmHg 64%

    23 September, Sonntag

    Zeit Temperatur Niederschläge Wind Luftdruck Luftfeuchtigkeit
    00:00 +10°C° 0 mm 4 m/S 749 mmHg 65%
    01:00 +10°C° 0 mm 4 m/S 749 mmHg 65%
    02:00 +10°C° 0 mm 4 m/S 749 mmHg 66%
    03:00 +8°C° 0 mm 4 m/S 749 mmHg 68%
    04:00 +8°C° 0 mm 4 m/S 749 mmHg 69%
    05:00 +8°C° 0 mm 5 m/S 749 mmHg 69%
    06:00 +8°C° 0 mm 5 m/S 749 mmHg 68%
    07:00 +9°C° 0 mm 6 m/S 749 mmHg 68%
    08:00 +10°C° 0 mm 6 m/S 749 mmHg 63%
    09:00 +11°C° 0 mm 6 m/S 749 mmHg 58%
    10:00 +13°C° 0 mm 6 m/S 749 mmHg 53%
    11:00 +14°C° 0 mm 6 m/S 749 mmHg 50%
    12:00 +15°C° 0 mm 6 m/S 749 mmHg 46%
    13:00 +16°C° 0 mm 6 m/S 748 mmHg 43%
    14:00 +16°C° 0 mm 5 m/S 748 mmHg 43%
    15:00 +17°C° 0 mm 4 m/S 747 mmHg 43%
    16:00 +15°C° 0 mm 4 m/S 747 mmHg 44%
    17:00 +14°C° 0.1 mm 3 m/S 746 mmHg 47%
    18:00 +14°C° 0.1 mm 3 m/S 745 mmHg 51%
    19:00 +14°C° 0.1 mm 2 m/S 744 mmHg 54%
    20:00 +12°C° 1.2 mm 4 m/S 743 mmHg 63%
    21:00 +10°C° 1.2 mm 5 m/S 742 mmHg 72%
    22:00 +10°C° 1.2 mm 6 m/S 741 mmHg 80%
    23:00 +10°C° 3.4 mm 7 m/S 739 mmHg 84%

    24 September, Montag

    Zeit Temperatur Niederschläge Wind Luftdruck Luftfeuchtigkeit
    00:00 +10°C° 3.4 mm 7 m/S 737 mmHg 87%
    01:00 +10°C° 3.4 mm 8 m/S 736 mmHg 91%
    02:00 +10°C° 3 mm 8 m/S 734 mmHg 91%
    03:00 +11°C° 3 mm 8 m/S 732 mmHg 92%
    04:00 +11°C° 3 mm 8 m/S 731 mmHg 93%
    05:00 +12°C° 1.9 mm 7 m/S 730 mmHg 88%
    06:00 +14°C° 1.9 mm 7 m/S 729 mmHg 84%
    07:00 +14°C° 1.9 mm 7 m/S 728 mmHg 80%
    08:00 +14°C° 0 mm 7 m/S 728 mmHg 79%
    09:00 +14°C° 0 mm 7 m/S 727 mmHg 77%
    10:00 +12°C° 0 mm 8 m/S 727 mmHg 75%
    11:00 +14°C° 0.1 mm 7 m/S 727 mmHg 75%
    12:00 +14°C° 0.1 mm 7 m/S 727 mmHg 75%
    13:00 +14°C° 0.1 mm 6 m/S 727 mmHg 75%
    14:00 +12°C° 0.6 mm 9 m/S 728 mmHg 76%
    15:00 +11°C° 0.6 mm 11 m/S 729 mmHg 77%
    16:00 +9°C° 0.6 mm 13 m/S 730 mmHg 78%
    17:00 +9°C° 0.3 mm 13 m/S 732 mmHg 78%
    18:00 +9°C° 0.3 mm 13 m/S 733 mmHg 78%
    19:00 +8°C° 0.3 mm 12 m/S 735 mmHg 77%
    20:00 +8°C° 0.3 mm 12 m/S 737 mmHg 77%
    21:00 +8°C° 0.3 mm 12 m/S 739 mmHg 76%
    22:00 +8°C° 0.3 mm 12 m/S 740 mmHg 76%
    23:00 +7°C° 0.2 mm 11 m/S 742 mmHg 74%

    25 September, Dienstag

    Zeit Temperatur Niederschläge Wind Luftdruck Luftfeuchtigkeit
    00:00 +7°C° 0.2 mm 10 m/S 743 mmHg 73%
    01:00 +6°C° 0.2 mm 9 m/S 744 mmHg 72%
    02:00 +6°C° 0 mm 9 m/S 745 mmHg 71%
    03:00 +6°C° 0 mm 8 m/S 745 mmHg 71%
    04:00 +5°C° 0 mm 8 m/S 746 mmHg 70%
    05:00 +5°C° 0 mm 7 m/S 747 mmHg 69%
    06:00 +6°C° 0 mm 7 m/S 747 mmHg 68%
    07:00 +6°C° 0 mm 7 m/S 748 mmHg 67%
    08:00 +7°C° 0.1 mm 8 m/S 749 mmHg 62%
    09:00 +8°C° 0.1 mm 9 m/S 749 mmHg 57%
    10:00 +10°C° 0.1 mm 9 m/S 750 mmHg 52%
    11:00 +10°C° 0.2 mm 9 m/S 750 mmHg 50%
    12:00 +10°C° 0.2 mm 9 m/S 751 mmHg 48%
    13:00 +10°C° 0.2 mm 9 m/S 751 mmHg 47%
    14:00 +10°C° 0 mm 9 m/S 752 mmHg 47%
    15:00 +10°C° 0 mm 8 m/S 752 mmHg 47%
    16:00 +9°C° 0 mm 8 m/S 753 mmHg 47%
    17:00 +8°C° 0 mm 6 m/S 753 mmHg 50%
    18:00 +7°C° 0 mm 5 m/S 754 mmHg 54%
    19:00 +6°C° 0 mm 4 m/S 754 mmHg 57%
    20:00 +6°C° 0 mm 4 m/S 755 mmHg 58%
    21:00 +5°C° 0 mm 4 m/S 755 mmHg 60%
    22:00 +5°C° 0 mm 4 m/S 755 mmHg 61%
    23:00 +5°C° 0 mm 4 m/S 755 mmHg 64%
    Mehr zeigen